timestamp,surface_pressure_avg,surface_temp_avg,battery_voltage,lat,long
2018-11-30 00:00:00+00:00,270.0081,4.2,12.81,47.84626,-54.09684
2018-11-30 00:10:00+00:00,267.0547,4.2,12.73,47.84626,-54.09684
2018-11-30 00:20:00+00:00,264.0897,4.26,12.81,47.84626,-54.09684
2018-11-30 00:30:00+00:00,268.6097,4.2,12.81,47.84626,-54.09684
2018-11-30 00:40:00+00:00,269.9514,4.2,12.89,47.84626,-54.09684
2018-11-30 00:50:00+00:00,270.3947,4.2,12.89,47.84626,-54.09684
2018-11-30 01:00:00+00:00,271.2415,4.2,12.81,47.84626,-54.09684
2018-11-30 01:10:00+00:00,278.5497,4.2,12.73,47.84626,-54.09684
2018-11-30 01:20:00+00:00,280.5197,4.29,12.81,47.84626,-54.09684
2018-11-30 01:30:00+00:00,282.8231,4.5,12.81,47.84626,-54.09684
2018-11-30 01:40:00+00:00,285.9114,4.5,12.89,47.84626,-54.09684
2018-11-30 01:50:00+00:00,294.2397,4.39,12.89,47.84626,-54.09684
2018-11-30 02:00:00+00:00,298.6464,4.28,12.81,47.84626,-54.09684
2018-11-30 02:10:00+00:00,301.7813,4.3,12.73,47.84626,-54.09684
2018-11-30 02:20:00+00:00,306.5914,4.34,12.81,47.84626,-54.09684
2018-11-30 02:30:00+00:00,315.4613,4.5,12.81,47.84626,-54.09684
2018-11-30 02:40:00+00:00,318.6563,4.35,12.89,47.84626,-54.09684
2018-11-30 02:50:00+00:00,322.0163,4.53,12.89,47.84626,-54.09684
2018-11-30 03:00:00+00:00,329.3446,4.51,12.81,47.84626,-54.09684
2018-11-30 03:10:00+00:00,336.1713,4.38,12.73,47.84626,-54.09684
2018-11-30 03:20:00+00:00,336.813,4.28,12.81,47.84626,-54.09684
2018-11-30 03:30:00+00:00,339.9613,4.3,12.81,47.84626,-54.09684
2018-11-30 03:40:00+00:00,343.0496,4.3,12.89,47.84626,-54.09684
2018-11-30 03:50:00+00:00,348.1213,4.32,12.89,47.84626,-54.09684
2018-11-30 04:00:00+00:00,350.9346,4.44,12.81,47.84626,-54.09684
2018-11-30 04:10:00+00:00,353.7029,4.59,12.73,47.84626,-54.09684
2018-11-30 04:20:00+00:00,356.9379,4.6,12.81,47.84626,-54.09684
2018-11-30 04:30:00+00:00,360.3345,4.59,12.81,47.84626,-54.09684
2018-11-30 04:40:00+00:00,363.7562,4.56,12.89,47.84626,-54.09684
2018-11-30 04:50:00+00:00,367.613,4.58,12.89,47.84626,-54.09684
2018-11-30 05:00:00+00:00,365.7012,4.51,12.81,47.84626,-54.09684
2018-11-30 05:10:00+00:00,364.8346,4.5,12.73,47.84626,-54.09684
2018-11-30 05:20:00+00:00,366.5096,4.5,12.81,47.84626,-54.09684
2018-11-30 05:30:00+00:00,369.8246,4.4,12.81,47.84626,-54.09684
2018-11-30 05:40:00+00:00,368.3146,4.3,12.81,47.84626,-54.09684
2018-11-30 05:50:00+00:00,360.5663,4.5,12.89,47.84626,-54.09684
2018-11-30 06:00:00+00:00,362.9746,4.5,12.81,47.84626,-54.09684
2018-11-30 06:10:00+00:00,363.7963,4.5,12.73,47.84626,-54.09684
2018-11-30 06:20:00+00:00,356.663,4.49,12.81,47.84626,-54.09684
2018-11-30 06:30:00+00:00,351.6063,4.48,12.81,47.84626,-54.09684
2018-11-30 06:40:00+00:00,345.8163,4.48,12.81,47.84626,-54.09684
2018-11-30 06:50:00+00:00,335.5262,4.41,12.89,47.84626,-54.09684
2018-11-30 07:00:00+00:00,332.2013,4.4,12.81,47.84626,-54.09684
2018-11-30 07:10:00+00:00,332.023,4.3,12.73,47.84626,-54.09684
2018-11-30 07:20:00+00:00,321.8563,4.3,12.81,47.84626,-54.09684
2018-11-30 07:30:00+00:00,309.523,4.3,12.81,47.84626,-54.09684
2018-11-30 07:40:00+00:00,307.7747,4.3,12.81,47.84626,-54.09684
2018-11-30 07:50:00+00:00,300.3164,4.3,12.81,47.84626,-54.09684
2018-11-30 08:00:00+00:00,288.918,4.3,12.81,47.84626,-54.09684
2018-11-30 08:10:00+00:00,283.5164,4.3,12.73,47.84626,-54.09684
2018-11-30 08:20:00+00:00,281.1381,4.3,12.81,47.84626,-54.09684
2018-11-30 08:30:00+00:00,274.3381,4.3,12.81,47.84626,-54.09684
2018-11-30 08:40:00+00:00,269.9464,4.3,12.81,47.84626,-54.09684
2018-11-30 08:50:00+00:00,268.8614,4.3,12.81,47.84626,-54.09684
2018-11-30 09:00:00+00:00,261.1214,4.29,12.73,47.84626,-54.09684
2018-11-30 09:10:00+00:00,251.0631,4.3,12.73,47.84626,-54.09684
2018-11-30 09:20:00+00:00,248.1447,4.3,12.81,47.84626,-54.09684
2018-11-30 09:30:00+00:00,247.4248,4.3,12.81,47.84626,-54.09684
2018-11-30 09:40:00+00:00,243.2081,4.28,12.81,47.84626,-54.09684
2018-11-30 09:50:00+00:00,238.1314,4.29,12.81,47.84626,-54.09684
2018-11-30 10:00:00+00:00,239.0731,4.3,12.73,47.84626,-54.09684
2018-11-30 10:10:00+00:00,238.4264,4.3,12.73,47.84626,-54.09684
2018-11-30 10:20:00+00:00,237.1764,4.3,12.81,47.84626,-54.09684
2018-11-30 10:30:00+00:00,236.7331,4.3,12.81,47.84626,-54.09684
2018-11-30 10:40:00+00:00,238.3214,4.3,12.81,47.84626,-54.09684
2018-11-30 10:50:00+00:00,239.5931,4.3,12.81,47.84626,-54.09684
2018-11-30 11:00:00+00:00,240.4314,4.27,12.73,47.84626,-54.09684
2018-11-30 11:10:00+00:00,240.6198,4.2,12.73,47.84626,-54.09684
2018-11-30 11:20:00+00:00,244.2881,4.2,12.81,47.84626,-54.09684
2018-11-30 11:30:00+00:00,246.0431,4.1,12.81,47.84626,-54.09684
2018-11-30 11:40:00+00:00,245.2198,4.1,12.81,47.84626,-54.09684
2018-11-30 11:50:00+00:00,245.7298,4.12,12.89,47.84626,-54.09684
2018-11-30 12:00:00+00:00,249.6264,4.1,12.81,47.84626,-54.09684
2018-11-30 12:10:00+00:00,255.9281,4.23,12.73,47.84626,-54.09684
2018-11-30 12:20:00+00:00,254.6031,4.36,12.89,47.84626,-54.09684
2018-11-30 12:30:00+00:00,250.8248,4.46,12.89,47.84626,-54.09684
2018-11-30 12:40:00+00:00,254.6781,4.56,12.97,47.84626,-54.09684
2018-11-30 12:50:00+00:00,259.1131,4.6,12.97,47.84626,-54.09684
2018-11-30 13:00:00+00:00,258.2864,4.6,12.97,47.84626,-54.09684
2018-11-30 13:10:00+00:00,257.7264,4.6,12.81,47.84626,-54.09684
2018-11-30 13:20:00+00:00,262.1964,4.6,12.89,47.84626,-54.09684
2018-11-30 13:30:00+00:00,263.3414,4.6,12.97,47.84626,-54.09684
2018-11-30 13:40:00+00:00,266.8398,4.6,13.05,47.84626,-54.09684
2018-11-30 13:50:00+00:00,275.2414,4.58,13.13,47.84626,-54.09684
2018-11-30 14:00:00+00:00,282.953,4.59,13.13,47.84626,-54.09684
2018-11-30 14:10:00+00:00,285.543,4.6,13.05,47.84626,-54.09684
2018-11-30 14:20:00+00:00,293.5881,4.6,13.13,47.84626,-54.09684
2018-11-30 14:30:00+00:00,302.6597,4.6,13.21,47.84626,-54.09684
2018-11-30 14:40:00+00:00,307.6597,4.6,13.29,47.84626,-54.09684
2018-11-30 14:50:00+00:00,311.433,4.6,13.37,47.84626,-54.09684
2018-11-30 15:00:00+00:00,320.8596,4.6,13.29,47.84626,-54.09684
2018-11-30 15:10:00+00:00,332.238,4.57,13.21,47.84626,-54.09684
2018-11-30 15:20:00+00:00,339.063,4.5,13.44,47.84626,-54.09684
2018-11-30 15:30:00+00:00,342.3997,4.5,13.53,47.84626,-54.09684
2018-11-30 15:40:00+00:00,350.568,4.49,13.53,47.84626,-54.09684
2018-11-30 15:50:00+00:00,356.6579,4.45,13.44,47.84626,-54.09684
2018-11-30 16:00:00+00:00,355.8846,4.4,13.37,47.84626,-54.09684
2018-11-30 16:10:00+00:00,359.4396,4.46,13.21,47.84626,-54.09684
2018-11-30 16:20:00+00:00,368.6528,4.5,13.29,47.84626,-54.09684
2018-11-30 16:30:00+00:00,372.2279,4.44,13.29,47.84626,-54.09684
2018-11-30 16:40:00+00:00,367.6229,4.44,13.29,47.84626,-54.09684
2018-11-30 16:50:00+00:00,370.2095,4.48,13.29,47.84626,-54.09684
2018-11-30 17:00:00+00:00,378.5878,4.49,13.29,47.84626,-54.09684
2018-11-30 17:10:00+00:00,378.2712,4.45,13.21,47.84626,-54.09684
2018-11-30 17:20:00+00:00,374.538,4.5,13.21,47.84626,-54.09684
2018-11-30 17:30:00+00:00,377.3246,4.5,13.21,47.84626,-54.09684
2018-11-30 17:40:00+00:00,382.073,4.48,13.29,47.84626,-54.09684
2018-11-30 17:50:00+00:00,381.2296,4.5,13.29,47.84626,-54.09684
2018-11-30 18:00:00+00:00,379.2363,4.5,13.21,47.84626,-54.09684
2018-11-30 18:10:00+00:00,381.1763,4.5,13.13,47.84626,-54.09684
2018-11-30 18:20:00+00:00,379.9963,4.5,13.13,47.84626,-54.09684
2018-11-30 18:30:00+00:00,377.7062,4.5,13.13,47.84626,-54.09684
2018-11-30 18:40:00+00:00,378.8179,4.5,13.13,47.84626,-54.09684
2018-11-30 18:50:00+00:00,376.4013,4.5,13.13,47.84626,-54.09684
2018-11-30 19:00:00+00:00,370.5313,4.5,13.05,47.84626,-54.09684
2018-11-30 19:10:00+00:00,368.5896,4.5,12.97,47.84626,-54.09684
2018-11-30 19:20:00+00:00,366.6512,4.5,13.05,47.84626,-54.09684
2018-11-30 19:30:00+00:00,358.9363,4.5,13.05,47.84626,-54.09684
2018-11-30 19:40:00+00:00,353.7363,4.5,13.05,47.84626,-54.09684
2018-11-30 19:50:00+00:00,350.8463,4.5,13.05,47.84626,-54.09684
2018-11-30 20:00:00+00:00,342.4263,4.5,12.97,47.84626,-54.09684
2018-11-30 20:10:00+00:00,330.7897,4.5,12.89,47.84626,-54.09684
2018-11-30 20:20:00+00:00,324.5563,4.5,12.97,47.84626,-54.09684
2018-11-30 20:30:00+00:00,321.1497,4.5,12.97,47.84626,-54.09684
2018-11-30 20:40:00+00:00,312.2914,4.5,12.97,47.84626,-54.09684
2018-11-30 20:50:00+00:00,304.8996,4.5,12.97,47.84626,-54.09684
2018-11-30 21:00:00+00:00,302.728,4.5,12.89,47.84626,-54.09684
2018-11-30 21:10:00+00:00,297.0146,4.5,12.81,47.84626,-54.09684
2018-11-30 21:20:00+00:00,289.8014,4.5,12.89,47.84626,-54.09684
2018-11-30 21:30:00+00:00,284.8397,4.5,12.89,47.84626,-54.09684
2018-11-30 21:40:00+00:00,281.4247,4.45,12.89,47.84626,-54.09684
2018-11-30 21:50:00+00:00,275.0414,4.4,12.89,47.84626,-54.09684
2018-11-30 22:00:00+00:00,271.0514,4.4,12.81,47.84626,-54.09684
2018-11-30 22:10:00+00:00,268.8597,4.4,12.73,47.84626,-54.09684
2018-11-30 22:20:00+00:00,267.2098,4.4,12.81,47.84626,-54.09684
2018-11-30 22:30:00+00:00,261.1614,4.4,12.81,47.84626,-54.09684
2018-11-30 22:40:00+00:00,255.7464,4.4,12.89,47.84626,-54.09684
2018-11-30 22:50:00+00:00,253.4965,4.4,12.89,47.84626,-54.09684
2018-11-30 23:00:00+00:00,252.9414,4.4,12.81,47.84626,-54.09684
2018-11-30 23:10:00+00:00,250.1314,4.4,12.73,47.84626,-54.09684
2018-11-30 23:20:00+00:00,247.6081,4.4,12.81,47.84626,-54.09684
2018-11-30 23:30:00+00:00,246.1314,4.4,12.81,47.84626,-54.09684
2018-11-30 23:40:00+00:00,245.7581,4.4,12.81,47.84626,-54.09684
2018-11-30 23:50:00+00:00,244.9264,4.4,12.81,47.84626,-54.09684
